This demonstration page uses our WeatherBlox Daily Observations layout. Learn more.

Left ArrowRight Arrow

38.89511, -77.03637

Hourly Observations for February 7, 2017

Temp ( °F °C ) Dew Point ( °F °C ) Humidity (%) Winds ( mph kmh ) Pressure ( in mb ) Visibility ( mi km ) Precip ( " mm )
12:52 am 00:52 Cloudy with Light Rain 50 10 39 3.9 66 66 S 13 20 29.96 1014 10 16 0.00 0.03
1:52 am 01:52 Cloudy with Light Rain 50 10 40 4.4 68 68 S 10 17 29.94 1014 10 16 0.00 0.03
2:52 am 02:52 Cloudy 51 10.6 39 3.9 64 64 S 13 20 29.92 1013 10 16 0.00 0.03
3:52 am 03:52 Mostly Cloudy 51 10.6 38 3.3 61 61 SSW 6 9 29.89 1012 10 16 0.00 0.00
4:52 am 04:52 Cloudy 50 10 38 3.3 63 63 S 9 15 29.88 1012 10 16 0.00 0.00
5:52 am 05:52 Cloudy 49 9.4 38 3.3 66 66 S 8 13 29.88 1012 10 16 0.00 0.00
6:52 am 06:52 Mostly Cloudy 51 10.6 39 3.9 64 64 S 8 13 29.87 1012 10 16 0.00 0.00
7:52 am 07:52 Cloudy 53 11.7 41 5 64 64 S 10 17 29.86 1011 10 16 0.00 0.03
8:52 am 08:52 Cloudy 52 11.1 41 5 66 66 S 10 17 29.86 1011 10 16 0.00 0.00
9:52 am 09:52 Cloudy 56 13.3 43 6.1 62 62 S 10 17 29.85 1011 10 16 0.00 0.00
10:52 am 10:52 Cloudy 59 15 45 7.2 60 60 S 9 15 29.84 1011 10 16 0.00 0.00
11:52 am 11:52 Cloudy 63 17.2 47 8.3 56 56 S 13 20 29.80 1009 10 16 0.00 0.00
12:52 pm 12:52 Cloudy 66 18.9 50 10 56 56 S 10 17 29.77 1008 10 16 0.00 0.00
1:52 pm 13:52 Cloudy 65 18.3 49 9.4 56 56 S 15 24 29.72 1006 10 16 0.00 0.00
2:52 pm 14:52 Cloudy 71 21.7 51 10.6 49 49 S 20 31 29.69 1005 10 16 0.00 0.00
3:52 pm 15:52 Mostly Cloudy 71 21.7 50 10 47 47 SSW 16 26 29.67 1005 10 16 0.00 0.00
4:52 pm 16:52 Mostly Cloudy 71 21.7 50 10 47 47 SSW 17 28 29.65 1004 10 16 0.00 0.00
5:52 pm 17:52 Mostly Cloudy 64 17.8 48 8.9 56 56 S 16 26 29.65 1004 10 16 0.00 0.00
6:52 pm 18:52 Mostly Cloudy 63 17.2 49 9.4 60 60 S 17 28 29.64 1004 10 16 0.00 0.00
7:52 pm 19:52 Mostly Cloudy 61 16.1 49 9.4 65 65 S 17 28 29.63 1003 10 16 0.00 0.00
8:52 pm 20:52 Mostly Cloudy 62 16.7 51 10.6 67 67 S 17 28 29.63 1003 10 16 0.00 0.00
9:52 pm 21:52 Mostly Cloudy 61 16.1 51 10.6 70 70 S 17 28 29.62 1003 10 16 0.00 0.00
10:52 pm 22:52 Mostly Cloudy 60 15.6 51 10.6 72 72 S 16 26 29.60 1002 10 16 0.00 0.00
11:52 pm 23:52 Mostly Cloudy 64 17.8 54 12.2 70 70 SSW 18 30 29.60 1002 10 16 0.00 0.00

Powered by AerisWeather